Stündliche Wetter Aalen

Heute, 8 März, Montag

Zeit Temperatur Niederschläge Wind Luftdruck Luftfeuchtigkeit
00:00 -1°C° 0 mm 1 m/S 722 mmHg 73%
01:00 -1°C° 0 mm 1 m/S 722 mmHg 71%
02:00 -1°C° 0 mm 1 m/S 722 mmHg 74%
03:00 -1°C° 0 mm 1 m/S 722 mmHg 76%
04:00 -2°C° 0 mm 1 m/S 722 mmHg 79%
05:00 -2°C° 0 mm 1 m/S 722 mmHg 81%
06:00 -2°C° 0 mm 1 m/S 722 mmHg 83%
07:00 -2°C° 0 mm 1 m/S 722 mmHg 85%
08:00 0°C° 0 mm 1 m/S 722 mmHg 78%
09:00 +1°C° 0 mm 1 m/S 723 mmHg 70%
10:00 +3°C° 0 mm 1 m/S 723 mmHg 62%
11:00 +4°C° 0 mm 1 m/S 723 mmHg 58%
12:00 +5°C° 0 mm 1 m/S 723 mmHg 54%
13:00 +5°C° 0 mm 2 m/S 723 mmHg 49%
14:00 +5°C° 0 mm 2 m/S 722 mmHg 52%
15:00 +5°C° 0 mm 2 m/S 722 mmHg 54%
16:00 +5°C° 0 mm 2 m/S 722 mmHg 56%
17:00 +3°C° 0 mm 2 m/S 722 mmHg 66%
18:00 +2°C° 0 mm 2 m/S 722 mmHg 75%
19:00 -1°C° 0 mm 2 m/S 722 mmHg 84%
20:00 -2°C° 0 mm 2 m/S 722 mmHg 85%
21:00 0°C° 0 mm 1 m/S 722 mmHg 87%
22:00 0°C° 0 mm 1 m/S 722 mmHg 88%
23:00 0°C° 0 mm 1 m/S 722 mmHg 88%

Morgen, 9 März, Dienstag

Zeit Temperatur Niederschläge Wind Luftdruck Luftfeuchtigkeit
00:00 -1°C° 0 mm 1 m/S 722 mmHg 88%
01:00 -1°C° 0 mm 1 m/S 722 mmHg 89%
02:00 -2°C° 0 mm 0 m/S 721 mmHg 89%
03:00 -2°C° 0 mm 0 m/S 721 mmHg 89%
04:00 -2°C° 0 mm 0 m/S 721 mmHg 89%
05:00 -2°C° 0 mm 0 m/S 721 mmHg 89%
06:00 -2°C° 0 mm 0 m/S 721 mmHg 88%
07:00 -2°C° 0 mm 0 m/S 721 mmHg 88%
08:00 0°C° 0 mm 0 m/S 721 mmHg 80%
09:00 +1°C° 0 mm 0 m/S 721 mmHg 73%
10:00 +3°C° 0 mm 0 m/S 721 mmHg 65%
11:00 +4°C° 0 mm 0 m/S 721 mmHg 63%
12:00 +5°C° 0 mm 1 m/S 721 mmHg 60%
13:00 +6°C° 0 mm 1 m/S 722 mmHg 57%
14:00 +6°C° 0 mm 1 m/S 721 mmHg 58%
15:00 +6°C° 0 mm 1 m/S 721 mmHg 59%
16:00 +5°C° 0 mm 2 m/S 721 mmHg 61%
17:00 +4°C° 0 mm 2 m/S 721 mmHg 67%
18:00 +3°C° 0 mm 2 m/S 721 mmHg 73%
19:00 +2°C° 0 mm 1 m/S 721 mmHg 80%
20:00 +2°C° 0 mm 1 m/S 722 mmHg 83%
21:00 +2°C° 0 mm 1 m/S 722 mmHg 86%
22:00 +2°C° 0 mm 1 m/S 723 mmHg 90%
23:00 +1°C° 0 mm 2 m/S 723 mmHg 92%

übermorgen, 10 März, Mittwoch

Zeit Temperatur Niederschläge Wind Luftdruck Luftfeuchtigkeit
00:00 +1°C° 0 mm 2 m/S 722 mmHg 93%
01:00 +1°C° 0 mm 2 m/S 722 mmHg 95%
02:00 +1°C° 0 mm 2 m/S 722 mmHg 95%
03:00 +1°C° 0 mm 2 m/S 723 mmHg 96%
04:00 +1°C° 0 mm 2 m/S 723 mmHg 96%
05:00 +1°C° 0.1 mm 2 m/S 723 mmHg 96%
06:00 +1°C° 0.1 mm 2 m/S 723 mmHg 96%
07:00 +1°C° 0.1 mm 2 m/S 723 mmHg 96%
08:00 +1°C° 0.1 mm 2 m/S 723 mmHg 94%
09:00 +2°C° 0.1 mm 2 m/S 724 mmHg 92%
10:00 +3°C° 0.1 mm 2 m/S 724 mmHg 90%
11:00 +4°C° 0 mm 2 m/S 724 mmHg 85%
12:00 +4°C° 0 mm 2 m/S 724 mmHg 81%
13:00 +5°C° 0 mm 2 m/S 724 mmHg 76%
14:00 +6°C° 0 mm 2 m/S 723 mmHg 72%
15:00 +6°C° 0 mm 2 m/S 723 mmHg 69%
16:00 +7°C° 0 mm 2 m/S 722 mmHg 65%
17:00 +7°C° 0 mm 1 m/S 722 mmHg 70%
18:00 +5°C° 0 mm 1 m/S 722 mmHg 75%
19:00 +4°C° 0 mm 1 m/S 722 mmHg 79%
20:00 +3°C° 0 mm 2 m/S 722 mmHg 79%
21:00 +3°C° 0 mm 2 m/S 722 mmHg 79%
22:00 +3°C° 0 mm 2 m/S 722 mmHg 78%
23:00 +2°C° 0 mm 3 m/S 722 mmHg 77%

11 März, Donnerstag

Zeit Temperatur Niederschläge Wind Luftdruck Luftfeuchtigkeit
00:00 +2°C° 0 mm 3 m/S 721 mmHg 76%
01:00 +1°C° 0 mm 3 m/S 721 mmHg 75%
02:00 +2°C° 0 mm 3 m/S 720 mmHg 74%
03:00 +1°C° 0 mm 4 m/S 720 mmHg 73%
04:00 +3°C° 0 mm 4 m/S 719 mmHg 71%
05:00 +3°C° 0 mm 4 m/S 719 mmHg 71%
06:00 +3°C° 0 mm 4 m/S 718 mmHg 71%
07:00 +3°C° 0 mm 5 m/S 718 mmHg 71%
08:00 +5°C° 0 mm 5 m/S 718 mmHg 69%
09:00 +5°C° 0 mm 6 m/S 718 mmHg 68%
10:00 +6°C° 0 mm 7 m/S 717 mmHg 67%
11:00 +9°C° 0 mm 7 m/S 717 mmHg 65%
12:00 +10°C° 0 mm 8 m/S 717 mmHg 64%
13:00 +12°C° 0 mm 9 m/S 716 mmHg 62%
14:00 +11°C° 0.1 mm 8 m/S 716 mmHg 68%
15:00 +10°C° 0.1 mm 8 m/S 715 mmHg 73%
16:00 +9°C° 0.1 mm 7 m/S 715 mmHg 78%
17:00 +9°C° 0.3 mm 7 m/S 715 mmHg 80%
18:00 +9°C° 0.3 mm 7 m/S 715 mmHg 83%
19:00 +8°C° 0.3 mm 7 m/S 715 mmHg 85%
20:00 +8°C° 0.9 mm 7 m/S 716 mmHg 84%
21:00 +6°C° 0.9 mm 7 m/S 716 mmHg 84%
22:00 +5°C° 0.9 mm 7 m/S 717 mmHg 83%
23:00 +4°C° 0.1 mm 7 m/S 717 mmHg 84%

12 März, Freitag

Zeit Temperatur Niederschläge Wind Luftdruck Luftfeuchtigkeit
00:00 +4°C° 0.1 mm 6 m/S 718 mmHg 86%
01:00 +3°C° 0.1 mm 5 m/S 718 mmHg 87%
02:00 +3°C° 0.1 mm 5 m/S 719 mmHg 87%
03:00 +2°C° 0.1 mm 5 m/S 719 mmHg 88%
04:00 +2°C° 0.1 mm 5 m/S 719 mmHg 88%
05:00 +3°C° 0 mm 4 m/S 719 mmHg 89%
06:00 +3°C° 0 mm 4 m/S 719 mmHg 90%
07:00 +1°C° 0 mm 4 m/S 719 mmHg 91%
08:00 +2°C° 0.1 mm 5 m/S 719 mmHg 86%
09:00 +3°C° 0.1 mm 6 m/S 720 mmHg 80%
10:00 +4°C° 0.1 mm 7 m/S 720 mmHg 74%
11:00 +5°C° 0.1 mm 7 m/S 720 mmHg 70%
12:00 +5°C° 0.1 mm 7 m/S 719 mmHg 65%
13:00 +6°C° 0.1 mm 7 m/S 719 mmHg 60%
14:00 +6°C° 0 mm 7 m/S 719 mmHg 60%
15:00 +8°C° 0 mm 6 m/S 718 mmHg 59%
16:00 +8°C° 0 mm 6 m/S 718 mmHg 58%
17:00 +6°C° 0 mm 5 m/S 718 mmHg 65%
18:00 +5°C° 0 mm 4 m/S 718 mmHg 71%
19:00 +4°C° 0 mm 3 m/S 717 mmHg 78%
20:00 +4°C° 0.1 mm 3 m/S 718 mmHg 80%
21:00 +3°C° 0.1 mm 4 m/S 718 mmHg 82%
22:00 +3°C° 0.1 mm 4 m/S 718 mmHg 83%
23:00 +3°C° 0 mm 4 m/S 717 mmHg 83%

13 März, Samstag

Zeit Temperatur Niederschläge Wind Luftdruck Luftfeuchtigkeit
00:00 +3°C° 0 mm 4 m/S 717 mmHg 83%
01:00 +3°C° 0 mm 4 m/S 717 mmHg 83%
02:00 +2°C° 0.1 mm 5 m/S 717 mmHg 84%
03:00 +2°C° 0.1 mm 5 m/S 716 mmHg 86%
04:00 +2°C° 0.1 mm 5 m/S 716 mmHg 88%
05:00 +2°C° 0.6 mm 6 m/S 716 mmHg 89%
06:00 +1°C° 0.6 mm 6 m/S 716 mmHg 91%
07:00 0°C° 0.6 mm 7 m/S 717 mmHg 93%
08:00 0°C° 0.2 mm 7 m/S 717 mmHg 92%
09:00 +2°C° 0.2 mm 7 m/S 717 mmHg 90%
10:00 +2°C° 0.2 mm 7 m/S 718 mmHg 88%
11:00 +3°C° 0.2 mm 7 m/S 718 mmHg 85%
12:00 +4°C° 0.2 mm 8 m/S 718 mmHg 81%
13:00 +4°C° 0.2 mm 8 m/S 718 mmHg 78%
14:00 +4°C° 0.5 mm 8 m/S 718 mmHg 81%
15:00 +2°C° 0.5 mm 8 m/S 718 mmHg 84%
16:00 +2°C° 0.5 mm 8 m/S 718 mmHg 88%
17:00 +3°C° 0.5 mm 7 m/S 718 mmHg 89%
18:00 +3°C° 0.5 mm 7 m/S 718 mmHg 90%
19:00 +3°C° 0.5 mm 6 m/S 719 mmHg 91%
20:00 +3°C° 0.2 mm 6 m/S 719 mmHg 91%
21:00 +3°C° 0.2 mm 6 m/S 719 mmHg 91%
22:00 +3°C° 0.2 mm 6 m/S 719 mmHg 91%
23:00 +3°C° 0.4 mm 6 m/S 719 mmHg 91%
Mehr zeigen

Wir brauchen deine Erlaubnis

Meteoprog und unser Service Anbieter werden persönliche Daten aufbewahren, so wie Cookies, Geräte Bezeichnung oder ähnliche Technologien von deinem Gerät und Prozess, so wie Persönliche Daten Inhalte und Werbungen, genauso wie social Media und den Verkehr zu analysieren.

  • Aufbewahrung und/oder Zugang zu deiner Geräte Informationen.

    Cookies, Geräte Bezeichnung oder andere Informationen, können aufbewahrt oder Zugang zu deinem Gerät erhalten, für den Grund, der oben angegeben wird.

  • Personalisierte Werbung und Inhalte, Messungen, Einblick in das Publikum und Produkt Entwicklung.

    Werbungen und Inhalte können personalisiert werden, basierend auf ein Profil. Mehr Daten können besser personalisierte Werbungen und Inhalte hinzufügen. Werbung und Inhalte können gezeigt und gemessen werden. Einblicke über das Publikum, welche die Werbung gesehen haben und den Inhalt, können abgeleitet werden. So wie Daten können genutzt werden, um es zu verbessern oder die Benutzer Erfahrung zu verbessern das System und die Software.

Wenn du “Ich stimme zu” klickst, erlaubst du uns, die Cookies zu benutzen die Geräte Bezeichnung, den Web oder ähnliche Technologien zu benutzen. Deine Settings, können in deinem Gerät bei deinem Browser geändert werden.

Für den bestimmten Zweck, berechtigten Interessen beruhen darauf, mehr als auf den Inhalt. Du kannst mehr darüber in unseren Privaten und Cookie Politik lesen.